Upington, South Africa

6:01 PM SAST on February 06, 2016 (GMT +0200)
Upington

Weather History for FAUP - December, 2013

Change the Weather History Date:

Friday, December 6, 2013

  Actual Average Record
Temperature  
Mean Temperature 81 °F -  
Max Temperature 98 °F 92 °F 107 °F (2015)
Min Temperature 64 °F 64 °F 57 °F (2001)
Cooling Degree Days 16    
Growing Degree Days 31 (Base 50)    
Moisture  
Dew Point 28 °F    
Average Humidity 14    
Maximum Humidity 28    
Minimum Humidity 4    
Precipitation  
Precipitation 0.00 in 0.02 in - ()
Sea Level Pressure  
Sea Level Pressure 29.97 in    
Wind  
Wind Speed 7 mph ()    
Max Wind Speed 16 mph    
Max Gust Speed 29 mph    
Visibility 6.2 miles    
Events      
Averages and records for this station are not official NWS values.
T = Trace of Precipitation, MM = Missing Value Source: Averaged Metar Reports

Daily Weather History Graph

Daily Weather History Graph

Search for Another Location

Airport or City:

Trip Planner

Search our weather history database for the weather conditions in past years. The results will help you decide how hot, cold, wet, or windy it might be!

Date:

Astronomy

Dec. 06, 2013 Rise Set
Actual Time 5:29 AM SAST 7:22 PM SAST
Civil Twilight 5:03 AM SAST 7:48 PM SAST
Nautical Twilight 4:31 AM SAST 8:21 PM SAST
Astronomical Twilight 3:57 AM SAST 8:55 PM SAST
Moon 9:05 AM SAST 10:37 PM SAST
Length of Visible Light 14h 45m
Length of Day
13h 52m
Waxing Crescent, 16% of the Moon is Illuminated
Dec 6
Waxing Crescent
Dec 9
First Quarter
Dec 17
Full
Dec 25
Last Quarter
Jan 1
New

Hourly Weather History & Observations

Time (SAST) Temp. Dew Point Humidity Pressure Visibility Wind Dir Wind Speed Gust Speed Precip Events Conditions
12:00 AM 71.6 °F 28.4 °F 20% 29.98 in - East 3.5 mph - N/A   Unknown
1:00 AM 68.0 °F 28.4 °F 23% 29.98 in - East 5.8 mph - N/A   Clear
2:00 AM 69 °F 28 °F 12%  in 25 mi East 6.9 mph - -  
2:00 AM 68.0 °F 28.4 °F 23% 29.98 in - East 5.8 mph - N/A   Clear
3:00 AM 64.4 °F 30.2 °F 28% 29.98 in - ENE 6.9 mph - N/A   Clear
4:00 AM 64.4 °F 28.4 °F 26% 29.98 in - ENE 4.6 mph - N/A   Clear
5:00 AM 66 °F 28 °F 14%  in 25 mi ESE 5.8 mph - -  
5:00 AM 64.4 °F 28.4 °F 26% 29.98 in - ESE 5.8 mph - N/A   Clear
6:00 AM 68.0 °F 28.4 °F 23% 30.01 in - East 2.3 mph - N/A   Clear
6:43 AM 71.6 °F 30.2 °F 22% 29.98 in - East 5.8 mph - N/A   Clear
7:00 AM 73.4 °F 32.0 °F 22% 30.01 in - ESE 6.9 mph - N/A   Clear
7:24 AM 77.0 °F 30.2 °F 18% 30.04 in - East 10.4 mph - N/A   Clear
8:00 AM 79 °F 26 °F 7%  in 25 mi East 12.7 mph - -   Scattered Clouds
8:00 AM 78.8 °F 26.6 °F 15% 30.04 in - East 12.7 mph - N/A   Clear
8:47 AM 82.4 °F 26.6 °F 13% 30.04 in - East 16.1 mph - N/A   Clear
9:00 AM 82.4 °F 28.4 °F 14% 30.04 in - East 13.8 mph - N/A   Clear
10:00 AM 86.0 °F 26.6 °F 12% 30.04 in - East 13.8 mph - N/A   Clear
10:43 AM 89.6 °F 26.6 °F 10% 30.04 in - East 11.5 mph - N/A   Clear
11:00 AM 91 °F 25 °F 4%  in 25 mi East 12.7 mph - -   Scattered Clouds
11:00 AM 89.6 °F 26.6 °F 10% 30.01 in - East 12.7 mph 28.8 mph N/A   Clear
12:00 PM 93.2 °F 24.8 °F 9% 29.98 in - ESE 12.7 mph - N/A   Clear
1:00 PM 93.2 °F 24.8 °F 9% 29.98 in - SE 8.1 mph - N/A   Clear
2:00 PM 95 °F 26 °F 4%  in 25 mi SSE 8.1 mph - -   Scattered Clouds
2:00 PM 95.0 °F 26.6 °F 9% 29.98 in - SSE 6.9 mph - N/A   Clear
3:00 PM 95.0 °F 26.6 °F 9% 29.92 in 6.2 mi SSE 8.1 mph - N/A   Partly Cloudy
4:00 PM 95.0 °F 26.6 °F 9% 29.89 in 6.2 mi South 6.9 mph - N/A   Partly Cloudy
5:00 PM 96 °F 26 °F 4%  in 25 mi West 3.5 mph - -   Scattered Clouds
5:00 PM 95.0 °F 26.6 °F 9% 29.89 in 6.2 mi West 3.5 mph - N/A   Partly Cloudy
6:00 PM 95.0 °F 30.2 °F 10% 29.89 in 6.2 mi SE 5.8 mph - N/A   Partly Cloudy
7:00 PM 91.4 °F 30.2 °F 11% 29.89 in 6.2 mi SE 9.2 mph - N/A   Partly Cloudy
8:00 PM 88 °F 28 °F 5%  in 25 mi ESE 9.2 mph - -   Scattered Clouds
8:00 PM 87.8 °F 28.4 °F 12% 29.89 in 6.2 mi ESE 8.1 mph - N/A   Partly Cloudy
9:00 PM 82.4 °F 28.4 °F 14% 29.92 in - ESE 6.9 mph - N/A   Unknown
10:00 PM 80.6 °F 28.4 °F 15% 29.92 in - ESE 6.9 mph - N/A   Unknown
11:00 PM 81 °F 24 °F 6%  in - ESE 10.4 mph - -  
11:00 PM 80.6 °F 24.8 °F 13% 29.95 in - ESE 9.2 mph - N/A   Unknown